EHI
0 0 0 0 0 0 0 0 0 0 0 0 0 1 1 1 1 0 1 3 5 9 11 14 19 23 27 32 35 36 36 36 37 40 38 34 31 30 27 24 21 17 15 11 6 3 2 1 1
0 0 0 0 0 0 0 0 0 0 0 1 1 2 1 1 0 0 2 4 7 10 10 14 22 28 32 35 36 36 35 34 34 35 34 31 28 26 24 22 19 17 15 12 6 3 2 2 2
0 0 0 0 0 0 0 0 0 0 1 2 3 3 3 1 0 0 2 5 9 11 10 16 28 36 38 38 37 37 35 31 29 30 30 28 24 22 20 18 16 14 12 10 5 2 1 1 1
0 0 0 0 0 0 0 0 0 0 1 3 3 4 5 3 1 2 5 11 15 15 13 20 32 39 39 39 38 37 35 30 27 27 27 24 20 17 15 13 12 11 9 6 4 1 0 0 0
0 0 0 0 0 0 0 0 0 0 1 2 4 5 7 5 3 5 11 17 21 20 17 24 35 41 40 39 39 38 34 30 27 26 24 20 14 10 9 9 9 8 6 4 2 0 0 0 0
0 0 0 0 0 0 0 0 0 1 2 4 6 7 7 6 5 7 14 21 24 25 25 28 36 41 40 39 40 39 35 32 27 24 22 16 10 6 6 7 8 6 3 1 0 0 0 0 0
0 0 0 0 0 0 0 0 0 2 4 6 8 7 6 5 6 9 16 23 26 28 30 31 34 37 37 36 38 38 36 31 25 21 19 15 9 6 6 6 6 4 2 1 0 0 0 0 0
0 0 0 0 0 0 0 0 1 4 6 6 6 6 6 7 10 13 17 22 24 26 29 30 30 30 29 29 32 35 33 28 22 18 16 14 10 6 6 6 4 3 3 2 1 1 0 0 0
0 0 0 0 0 0 0 1 3 6 7 6 6 8 13 16 17 17 18 18 20 22 24 24 24 23 22 23 25 28 26 22 18 15 14 12 8 6 5 4 3 2 2 2 2 2 1 0 0
0 0 0 0 0 0 0 1 4 7 8 8 9 16 26 29 23 18 16 17 17 18 18 17 18 19 20 21 22 22 19 15 12 11 11 9 6 4 2 1 1 1 1 1 1 1 1 0 0
0 0 0 0 0 0 0 1 3 5 6 8 13 24 36 37 28 19 16 17 17 17 16 15 16 17 18 19 20 18 14 11 10 10 9 7 4 2 1 0 0 0 0 0 0 0 0 0 0
1 1 0 0 0 0 1 2 4 5 5 8 14 25 34 35 29 22 18 17 18 18 16 16 16 16 16 16 17 17 14 11 10 10 9 6 3 1 0 0 0 0 0 0 0 0 0 0 0
0 0 0 0 0 1 2 4 5 5 6 8 14 22 27 29 27 25 23 20 17 15 15 16 17 16 16 15 15 16 14 11 9 9 8 5 2 0 0 0 0 0 0 0 0 0 0 0 0
0 0 0 0 1 2 4 4 5 6 7 9 13 18 22 24 26 27 26 24 18 13 13 15 16 16 16 15 14 14 13 11 9 7 5 3 1 0 0 0 0 0 0 0 0 0 0 0 0
0 0 0 0 1 3 4 4 5 8 9 10 12 16 19 21 24 25 26 26 20 14 13 14 15 15 15 14 13 13 12 10 8 5 2 1 0 0 0 0 0 0 0 0 0 0 0 0 0
0 0 0 0 1 2 2 2 5 9 11 11 12 15 16 17 18 21 23 23 20 16 13 13 14 15 15 14 13 12 11 9 7 3 1 0 0 0 0 0 0 0 0 0 0 0 0 0 0
0 0 0 0 0 1 1 1 4 8 10 10 12 15 15 14 15 18 20 21 21 20 16 14 14 15 15 14 13 11 10 8 5 2 0 0 0 0 0 0 0 0 0 0 0 0 0 0 0
0 0 0 0 0 0 1 2 4 7 9 10 12 16 17 15 15 18 21 21 22 22 20 17 17 17 17 16 14 12 10 7 4 1 0 0 0 0 0 0 0 0 0 0 0 0 0 0 0
0 0 0 0 0 0 1 2 4 7 9 11 13 17 19 18 17 20 23 23 24 24 22 20 19 20 20 19 18 16 12 8 5 3 1 1 0 0 0 0 0 0 0 0 0 0 0 0 0
0 0 0 0 1 0 0 1 3 6 8 10 12 15 17 18 19 20 22 24 24 25 24 22 21 21 21 21 19 18 14 9 6 5 3 2 1 2 2 2 1 1 1 0 0 0 0 0 0
0 0 0 0 0 0 0 0 2 4 5 6 8 9 13 17 19 19 19 21 21 21 22 21 20 20 20 19 18 16 13 9 8 7 5 3 2 3 3 3 3 2 2 1 0 0 0 0 0
0 0 0 0 0 0 0 0 1 2 2 2 3 5 9 14 15 15 15 16 15 16 17 17 18 19 18 17 15 13 11 10 9 8 6 4 3 3 3 3 3 3 3 2 1 0 0 0 0
0 0 0 0 0 0 0 0 0 0 0 1 2 6 10 12 12 12 13 13 12 12 14 15 16 16 16 15 15 12 10 10 8 6 6 4 4 3 3 3 3 3 3 3 2 1 0 0 0
0 0 0 0 0 0 0 0 0 0 1 1 3 7 11 11 11 11 13 13 12 13 14 13 13 13 14 14 14 11 9 8 6 4 4 4 4 4 3 3 3 3 3 3 3 2 1 0 0
0 0 0 0 0 0 0 0 0 0 1 2 3 7 11 12 12 13 14 14 13 13 12 11 11 12 13 12 11 11 10 8 5 3 3 4 5 4 4 4 3 3 4 4 4 3 2 1 1
0 0 0 0 0 0 0 0 0 0 1 2 3 5 9 12 14 15 15 14 13 12 10 9 10 10 10 8 7 8 8 7 4 1 1 3 4 4 5 5 4 4 5 6 5 4 4 3 2
0 0 0 0 0 0 0 0 0 0 1 3 3 3 6 11 15 15 14 12 11 9 7 7 7 7 7 6 5 5 5 3 1 0 0 1 3 4 5 6 6 6 6 6 6 5 4 3 3
0 0 0 0 0 0 0 0 0 0 1 2 3 2 4 8 11 12 10 8 7 6 5 5 5 5 6 6 5 4 3 1 0 0 0 0 1 2 4 5 5 6 6 6 6 6 5 4 4
0 0 0 0 0 0 0 0 0 0 0 1 1 1 2 5 7 7 6 5 5 4 3 4 4 4 5 4 4 3 2 0 0 0 0 0 0 1 1 2 3 4 5 6 6 6 6 5 5
0 0 0 0 0 0 0 0 0 0 0 1 2 2 1 3 5 4 3 3 4 4 3 4 4 4 4 4 3 3 2 1 0 0 0 0 0 0 0 0 1 3 4 5 6 6 6 6 5
Wind_Speed
1 2 3 3 5 5 2 3 2 1 0 0 2 3 4 3 3 3 1 7 11 11 10 12 14 14 14 14 14 14 14 14 14 13 13 12 12 11 11 10 9 8 7 7 7 6 6 5 5
1 2 3 5 5 1 4 3 2 2 1 1 2 3 3 1 1 4 4 6 11 12 9 10 14 14 14 14 13 14 14 13 13 12 12 11 11 10 9 9 8 7 7 6 6 5 5 4 4
1 2 5 5 3 4 4 3 2 1 1 1 2 3 2 2 3 4 5 10 10 10 8 10 15 14 14 13 13 13 13 13 12 12 11 10 10 9 8 8 7 6 6 6 5 5 4 4 3
3 4 5 5 2 5 4 4 2 1 1 1 2 3 1 2 3 5 10 12 11 9 8 10 15 14 14 13 13 12 12 12 11 11 10 9 9 8 7 7 6 5 5 5 4 4 3 3 2
4 5 5 2 3 4 4 4 3 2 1 1 3 3 1 3 6 10 11 12 12 9 7 9 13 13 13 13 12 12 11 11 10 10 9 8 7 6 6 6 5 4 4 4 3 3 3 2 2
5 5 5 1 4 4 3 2 1 2 2 1 3 3 1 2 7 9 10 9 9 9 7 7 12 13 12 12 12 11 10 9 9 8 7 7 6 5 5 5 4 3 3 3 3 2 2 1 1
5 5 4 3 2 3 2 0 1 2 1 2 3 4 1 2 5 9 8 8 8 7 7 5 6 8 10 10 10 10 9 9 8 7 7 6 5 5 4 3 3 3 2 2 2 2 2 2 2
5 5 2 1 2 3 2 0 0 1 1 1 3 5 4 5 7 8 8 7 7 6 5 5 5 5 4 5 8 9 9 8 7 7 6 6 5 4 3 2 2 2 2 2 2 2 2 2 3
4 5 2 4 4 4 2 1 1 0 2 1 1 2 4 12 11 10 8 6 6 6 5 5 5 4 4 4 6 6 7 6 5 4 5 4 1 1 1 1 1 2 2 2 2 2 3 3 3
4 3 6 5 4 3 2 2 2 1 1 1 1 3 10 13 12 12 11 10 9 8 7 5 5 4 4 4 3 2 3 3 2 2 2 2 1 1 1 1 1 2 2 3 3 3 3 2 1
4 5 5 4 4 3 1 1 2 4 3 6 7 9 13 12 10 10 10 9 9 8 7 6 5 4 4 3 3 2 2 2 2 2 2 2 1 1 1 1 1 2 2 2 2 2 2 1 1
3 4 4 3 2 2 2 2 1 3 6 4 7 11 13 13 12 11 10 9 8 8 8 6 5 5 4 3 2 2 2 2 1 2 2 2 1 0 0 0 0 0 1 1 1 1 2 2 2
3 3 2 2 1 1 2 1 2 3 3 2 6 10 11 11 10 8 7 7 7 7 7 6 6 6 5 4 3 3 2 2 2 2 2 2 2 1 1 0 0 1 1 1 1 1 2 2 2
2 2 3 3 1 1 3 1 1 3 2 4 6 8 9 10 10 8 7 8 8 7 7 6 6 6 5 4 3 3 3 2 2 2 2 3 2 2 1 1 1 1 1 1 1 2 2 2 2
1 2 5 3 1 0 3 2 3 3 4 4 5 6 7 7 7 9 9 8 8 7 6 6 6 6 5 4 4 2 2 2 2 2 2 2 2 2 2 1 1 1 1 1 1 1 1 1 2
2 3 3 4 1 0 3 4 3 1 4 3 3 4 5 5 6 6 7 6 6 6 6 5 6 6 5 4 3 2 2 2 2 1 1 2 2 2 2 1 1 1 0 0 1 1 1 2 2
4 1 3 5 1 0 2 5 4 2 4 4 3 4 4 4 4 5 6 6 6 6 6 6 5 6 5 4 3 2 2 2 1 1 1 1 1 2 2 1 1 0 0 0 1 1 1 2 3
2 2 3 4 3 1 1 4 5 3 5 4 3 3 4 5 5 5 5 6 5 5 4 4 4 5 5 3 2 2 1 1 1 1 1 1 1 1 1 1 0 0 0 1 1 1 1 1 2
2 2 4 5 3 0 3 4 5 3 3 4 4 4 5 5 4 4 4 5 5 5 5 5 5 4 4 3 3 3 2 1 0 0 0 1 1 1 1 1 0 0 0 0 1 1 1 2 1
2 2 3 4 1 1 2 4 3 3 5 5 6 6 6 5 4 4 4 5 6 6 6 5 5 5 4 4 3 2 2 2 1 0 0 1 1 1 1 1 0 0 1 1 1 1 1 1 1
2 4 4 3 2 3 1 5 3 3 2 3 4 5 5 7 7 6 6 5 5 5 6 5 5 4 4 4 3 2 2 2 1 1 0 0 0 1 1 1 1 0 1 0 0 1 1 0 1
4 4 4 2 1 2 0 3 6 3 3 4 5 5 6 5 6 6 6 5 5 4 4 4 4 4 3 4 4 4 3 2 2 1 1 0 0 0 0 1 1 1 0 0 0 1 1 1 1
4 1 1 1 2 1 2 1 8 2 4 6 6 6 5 6 6 6 6 6 4 4 4 3 4 4 3 4 4 4 3 2 1 1 1 0 1 1 0 1 1 0 0 0 0 1 1 1 1
1 5 6 5 4 1 2 2 7 4 6 5 4 5 5 5 6 5 5 5 4 4 4 4 4 3 2 3 3 4 4 3 2 1 1 0 0 0 0 1 1 0 0 0 0 0 0 0 0
4 5 5 5 4 5 2 2 9 6 4 5 5 5 5 5 6 6 6 6 5 5 5 5 4 3 3 3 3 3 3 3 3 2 2 2 1 1 1 0 0 0 1 1 1 0 1 1 1
2 6 6 3 4 5 2 5 8 3 2 2 2 3 3 4 5 6 6 6 6 6 5 5 5 3 3 2 2 2 2 2 2 2 2 3 2 2 2 1 1 1 1 1 0 1 1 1 1
3 2 4 5 1 2 5 6 8 1 2 2 1 0 2 3 4 5 5 5 5 5 5 5 5 4 3 3 2 2 2 2 2 1 1 2 2 2 2 1 1 1 1 1 1 1 1 1 2
2 5 5 4 3 4 5 5 5 5 4 3 2 2 3 3 4 4 5 5 5 5 4 4 4 4 3 3 3 2 2 2 2 1 2 2 2 1 1 1 1 1 1 1 1 1 2 1 2
2 2 4 3 3 4 4 7 5 5 5 5 5 4 3 4 4 5 5 5 5 4 4 4 3 3 3 2 2 2 1 1 1 1 2 2 1 1 1 2 1 1 2 1 1 2 2 2 3
2 3 5 3 3 3 3 9 4 3 3 3 3 3 3 3 3 4 4 5 5 5 4 4 4 3 3 2 2 2 1 1 1 1 2 2 2 2 2 2 2 2 3 2 2 3 3 3 3
Wind_Direction
241 107 107 79 59 49 278 262 244 282 348 348 119 120 136 143 170 201 143 144 138 143 150 152 152 147 141 135 130 127 125 123 122 123 124 125 127 128 130 132 133 134 133 132 130 129 125 122 120
140 122 72 66 85 55 277 257 234 226 169 136 77 80 97 114 103 121 138 142 140 143 145 150 150 147 142 137 133 131 129 128 128 128 128 129 130 130 132 134 137 137 136 133 130 127 125 124 126
160 90 88 80 116 185 239 242 218 217 140 102 87 64 102 146 145 151 153 137 134 139 142 152 151 148 144 141 138 136 134 134 133 132 131 131 131 131 133 136 139 141 141 138 136 134 131 130 133
100 57 58 79 214 227 228 245 210 172 25 65 125 94 60 42 147 144 137 138 137 139 142 153 152 151 148 145 142 141 139 138 138 136 136 136 135 135 138 143 144 146 146 145 145 145 142 143 150
63 79 68 41 266 261 242 236 203 195 182 122 125 122 50 18 105 124 136 141 142 143 145 154 153 152 151 149 147 146 143 142 141 139 139 140 141 141 139 143 143 149 152 153 155 159 162 171 187
60 70 90 231 274 282 270 237 171 179 152 118 122 126 105 99 122 135 138 138 140 143 142 149 153 153 153 152 150 148 146 144 142 141 143 144 145 148 147 146 149 158 162 162 163 169 182 198 216
104 102 149 195 262 289 260 204 178 152 151 182 141 129 143 144 137 133 129 126 129 137 139 140 148 153 155 154 153 151 147 145 144 144 145 147 150 152 153 156 164 168 175 183 194 207 229 245 254
123 105 122 217 221 253 226 34 237 151 193 134 130 157 190 172 135 119 112 116 126 132 135 134 135 139 145 152 158 152 151 151 149 150 152 152 154 157 160 159 173 190 212 227 231 242 252 269 277
92 81 184 221 210 240 206 185 284 109 118 111 159 182 153 136 132 125 121 126 139 145 145 144 146 145 144 149 158 157 156 152 149 151 150 145 130 131 155 193 223 237 249 252 260 272 269 270 280
94 139 221 222 213 225 235 202 196 120 108 173 138 108 126 137 148 150 154 159 164 164 165 163 157 153 147 157 147 140 142 137 136 132 138 129 119 125 126 12 301 291 288 290 294 292 295 288 284
150 192 229 245 233 205 194 205 167 150 226 218 183 157 146 152 158 164 167 167 170 165 168 174 167 157 154 148 138 130 126 127 132 136 134 127 115 91 53 37 341 335 332 325 329 333 316 300 280
182 236 222 251 222 170 177 169 155 200 230 208 171 157 156 162 168 174 171 168 163 163 173 170 166 157 158 146 142 140 141 146 161 163 146 136 141 162 190 187 273 291 287 294 310 308 305 309 296
217 261 259 251 285 191 133 161 185 239 245 139 141 147 159 167 172 173 165 161 160 167 174 174 169 167 165 157 158 155 164 168 172 169 168 158 169 198 218 238 267 278 283 289 298 297 305 307 302
236 269 309 308 287 206 138 251 170 242 153 139 149 158 166 171 169 162 159 165 170 174 179 177 173 171 162 164 169 169 174 174 167 179 185 175 181 192 192 223 255 268 267 275 281 293 296 293 295
335 350 339 328 351 193 105 332 245 220 130 141 151 157 162 168 168 172 176 176 176 177 175 177 175 166 166 171 180 172 175 171 177 189 193 186 183 187 181 191 233 259 262 277 294 326 323 318 313
38 43 334 302 340 285 128 251 263 184 139 161 160 166 169 175 179 180 172 169 169 167 169 176 178 167 172 172 171 168 178 181 189 188 197 194 188 179 171 192 239 256 268 335 316 342 341 328 320
31 17 287 301 299 106 158 247 269 186 162 178 172 170 169 175 185 181 169 169 169 172 170 171 175 173 175 170 164 169 176 180 187 175 189 194 184 174 166 194 231 242 53 9 329 3 331 307 314
272 279 282 280 288 61 227 259 277 228 185 198 191 181 173 181 196 179 169 165 158 157 163 170 176 171 162 158 152 157 158 177 161 159 189 167 175 157 144 177 237 111 86 1 342 317 318 288 304
213 228 269 272 272 155 239 256 263 236 201 214 211 201 200 203 192 161 149 146 149 154 163 173 175 179 164 163 168 172 187 186 169 175 168 131 123 124 131 144 57 59 107 308 311 311 345 342 340
210 244 270 290 324 180 250 278 268 225 216 218 216 209 204 194 170 161 151 152 162 167 173 180 184 181 179 180 171 162 150 151 154 152 103 130 131 138 151 150 161 69 75 28 10 27 18 346 14
244 207 232 248 344 26 6 311 285 268 239 228 223 219 205 195 189 182 172 176 174 178 182 180 183 181 177 166 129 104 87 75 79 73 5 329 127 148 161 157 129 97 119 185 293 73 102 321 338
266 243 213 195 108 295 55 281 284 260 263 238 232 228 221 203 193 188 182 183 186 182 165 166 163 159 161 155 150 150 156 171 193 190 199 306 4 169 151 125 125 122 136 188 318 86 126 148 279
232 340 103 114 128 32 358 209 283 306 262 253 240 232 224 206 195 192 187 186 177 155 141 139 136 139 142 144 152 151 160 171 159 137 130 86 358 342 67 99 113 121 149 284 35 53 72 117 206
130 59 51 49 67 338 251 188 276 246 237 257 242 226 216 202 192 187 175 160 147 140 139 135 125 131 138 145 148 152 164 166 153 159 161 163 270 304 352 81 92 134 196 262 279 193 101 203 222
67 74 26 1 6 259 265 219 251 254 245 243 245 228 208 190 182 176 170 165 160 155 149 141 139 150 145 137 153 162 173 174 177 186 184 188 210 242 259 192 185 221 236 233 212 191 255 246 261
168 137 156 212 234 274 297 239 254 260 294 304 264 213 186 178 174 173 170 161 160 157 153 150 155 160 149 149 165 151 156 169 186 191 192 198 210 230 238 218 217 241 248 239 201 219 252 252 263
143 169 168 144 196 270 275 279 299 308 344 347 2 151 185 173 166 164 154 150 154 155 161 164 162 165 163 164 160 145 156 165 189 205 204 211 219 225 222 217 219 241 234 227 214 250 269 267 267
126 141 98 116 173 258 283 277 263 276 271 276 256 228 207 171 159 155 148 151 150 152 153 157 157 162 163 160 165 159 168 184 191 185 222 231 238 233 215 232 234 246 248 238 220 258 265 270 277
59 82 100 120 163 181 266 271 240 234 231 226 229 215 197 185 172 163 156 151 139 136 139 143 142 142 146 163 157 157 182 188 190 207 237 237 243 231 223 233 242 251 255 248 239 262 270 268 281
179 169 146 156 236 196 214 268 285 241 232 212 218 194 174 173 160 150 147 141 140 144 147 153 158 160 170 165 155 169 180 186 193 229 251 233 233 238 229 237 245 252 254 252 247 258 267 263 270